Nebraska City, NE

6:58 PM CST on February 24, 2017 (GMT -0600)
Nebraska City Municipal

Weather History for KAFK - August, 2013

Change the Weather History Date:

Friday, August 2, 2013

  Actual Average (KSDA) Record (KSDA)
Temperature  
Mean Temperature 74 °F -  
Max Temperature 82 °F 86 °F 106 °F (1964)
Min Temperature 66 °F 62 °F 51 °F (1986)
Cooling Degree Days 9    
Growing Degree Days 24 (Base 50)    
Moisture  
Dew Point 66 °F    
Average Humidity 78    
Maximum Humidity 100    
Minimum Humidity 60    
Precipitation  
Precipitation 0.00 in - - ()
Sea Level Pressure  
Sea Level Pressure 29.93 in    
Wind  
Wind Speed 12 mph (East)    
Max Wind Speed 26 mph    
Max Gust Speed 33 mph    
Visibility 10 miles    
Events Rain    
Averages and records for this station are not official NWS values.
T = Trace of Precipitation, MM = Missing Value Source: NWS Daily Summary

Daily Weather History Graph

Daily Weather History Graph

Search for Another Location

Airport or City:

Trip Planner

Search our weather history database for the weather conditions in past years. The results will help you decide how hot, cold, wet, or windy it might be!

Date:

Astronomy

Aug. 02, 2013 Rise Set
Actual Time 6:21 AM CDT 8:37 PM CDT
Civil Twilight 5:51 AM CDT 9:07 PM CDT
Nautical Twilight 5:13 AM CDT 9:45 PM CDT
Astronomical Twilight 4:31 AM CDT 10:26 PM CDT
Moon 2:43 AM CDT (8/2) 5:35 PM CDT (8/2)
Length of Visible Light 15h 16m
Length of Day
14h 15m
Waning Crescent, 15% of the Moon is Illuminated
Aug 2
Waning Crescent
Aug 6
New
Aug 14
First Quarter
Aug 20
Full
Aug 28
Last Quarter

Hourly Weather History & Observations

Time (CDT) Temp. Heat Index Dew Point Humidity Pressure Visibility Wind Dir Wind Speed Gust Speed Precip Events Conditions
12:15 AM 69.4 °F - 62.8 °F 79% 29.91 in 10.0 mi South 20.7 mph 32.2 mph N/A   Clear
12:35 AM 69.8 °F - 63.5 °F 80% 29.90 in 10.0 mi South 26.5 mph 33.4 mph N/A   Clear
12:55 AM 69.4 °F - 64.4 °F 84% 29.90 in 10.0 mi South 23.0 mph 31.1 mph N/A   Clear
1:15 AM 69.3 °F - 65.5 °F 88% 29.92 in 10.0 mi SSW 19.6 mph 28.8 mph N/A   Clear
1:35 AM 69.8 °F - 65.3 °F 86% 29.92 in 10.0 mi SSW 21.9 mph 28.8 mph N/A   Clear
1:55 AM 69.3 °F - 64.4 °F 84% 29.92 in 10.0 mi SSW 21.9 mph 29.9 mph N/A   Clear
2:15 AM 68.4 °F - 64.4 °F 87% 29.92 in 10.0 mi SSW 16.1 mph 26.5 mph N/A Rain Light Rain
2:35 AM 68.2 °F - 64.0 °F 87% 29.93 in 10.0 mi SSW 17.3 mph 23.0 mph N/A   Clear
2:55 AM 68.5 °F - 64.4 °F 87% 29.93 in 10.0 mi SW 17.3 mph 25.3 mph N/A   Clear
3:15 AM 68.0 °F - 64.6 °F 89% 29.93 in 10.0 mi SW 12.7 mph 18.4 mph N/A Rain Light Rain
3:35 AM 67.6 °F - 66.2 °F 95% 29.92 in 10.0 mi SW 9.2 mph - N/A   Clear
3:55 AM 68.0 °F - 64.6 °F 89% 29.92 in 10.0 mi SW 9.2 mph - N/A   Clear
4:15 AM 68.0 °F - 64.2 °F 88% 29.89 in 10.0 mi SW 12.7 mph - N/A   Clear
4:35 AM 67.5 °F - 63.5 °F 87% 29.86 in 10.0 mi SW 18.4 mph 23.0 mph N/A Rain Light Rain
4:55 AM 67.1 °F - 63.5 °F 88% 29.83 in 10.0 mi SSW 16.1 mph 23.0 mph N/A Rain Light Rain
5:15 AM 66.7 °F - 63.7 °F 90% 29.82 in 10.0 mi SW 13.8 mph - N/A   Clear
5:35 AM 67.1 °F - 63.9 °F 89% 29.91 in 10.0 mi NNE 10.4 mph 24.2 mph N/A   Scattered Clouds
5:55 AM 66.9 °F - 64.2 °F 91% 29.90 in 10.0 mi NE 9.2 mph - N/A   Scattered Clouds
6:15 AM 66.6 °F - 65.8 °F 98% 29.90 in 10.0 mi NE 5.8 mph - N/A   Clear
6:35 AM 66.2 °F - 66.0 °F 99% 29.90 in 10.0 mi NNE 5.8 mph - N/A   Clear
6:55 AM 66.2 °F - 66.0 °F 99% 29.90 in 10.0 mi NE 4.6 mph - N/A   Clear
7:35 AM 66.4 °F - 66.4 °F 100% 29.90 in 10.0 mi NE 4.6 mph - N/A   Clear
7:55 AM 67.6 °F - 67.1 °F 98% 29.90 in 10.0 mi ENE 5.8 mph - N/A   Clear
8:15 AM 69.1 °F - 67.5 °F 95% 29.91 in 10.0 mi NE 4.6 mph - N/A   Clear
8:35 AM 70.5 °F - 65.8 °F 85% 29.91 in 10.0 mi East 4.6 mph - N/A   Clear
8:55 AM 71.6 °F - 65.7 °F 81% 29.90 in 10.0 mi ESE 5.8 mph - N/A   Clear
9:15 AM 72.1 °F - 66.0 °F 81% 29.91 in 10.0 mi East 4.6 mph - N/A   Clear
9:35 AM 72.7 °F - 66.0 °F 80% 29.92 in 10.0 mi ESE 6.9 mph - N/A   Clear
9:55 AM 73.2 °F - 66.0 °F 78% 29.93 in 10.0 mi East 6.9 mph - N/A   Clear
10:15 AM 74.8 °F - 66.7 °F 76% 29.93 in 10.0 mi East 5.8 mph - N/A   Clear
10:35 AM 75.2 °F - 67.3 °F 76% 29.93 in 10.0 mi ESE 4.6 mph - N/A   Scattered Clouds
10:55 AM 75.9 °F - 66.2 °F 72% 29.94 in 10.0 mi East 6.9 mph - N/A   Mostly Cloudy
11:15 AM 77.0 °F - 67.5 °F 72% 29.94 in 10.0 mi East 6.9 mph - N/A   Overcast
11:35 AM 77.2 °F - 66.7 °F 70% 29.94 in 10.0 mi ESE 8.1 mph - N/A   Overcast
11:55 AM 77.0 °F - 66.9 °F 71% 29.94 in 10.0 mi East 5.8 mph - N/A   Overcast
12:15 PM 77.4 °F - 66.6 °F 69% 29.95 in 10.0 mi East 6.9 mph - N/A   Overcast
12:35 PM 77.9 °F - 65.1 °F 65% 29.95 in 10.0 mi East 5.8 mph - N/A   Overcast
12:55 PM 78.6 °F - 66.0 °F 65% 29.94 in 10.0 mi East 6.9 mph - N/A   Overcast
1:15 PM 79.0 °F - 65.7 °F 64% 29.94 in 10.0 mi ESE 5.8 mph - N/A   Overcast
1:35 PM 79.9 °F - 66.6 °F 64% 29.94 in 10.0 mi East 6.9 mph - N/A   Overcast
1:55 PM 79.3 °F - 66.0 °F 64% 29.93 in 10.0 mi ESE 3.5 mph - N/A   Overcast
2:15 PM 80.2 °F 82.1 °F 65.1 °F 60% 29.93 in 10.0 mi SE 4.6 mph - N/A   Scattered Clouds
2:35 PM 81.1 °F 83.7 °F 67.3 °F 63% 29.93 in 10.0 mi SE 3.5 mph - N/A   Scattered Clouds
2:55 PM 80.8 °F 83.2 °F 67.3 °F 63% 29.93 in 10.0 mi ESE 5.8 mph - N/A   Scattered Clouds
3:15 PM 81.0 °F 83.3 °F 66.7 °F 62% 29.92 in 10.0 mi ESE 5.8 mph - N/A   Clear
3:35 PM 81.5 °F 84.1 °F 67.5 °F 62% 29.92 in 10.0 mi ESE 6.9 mph - N/A   Scattered Clouds
3:55 PM 81.5 °F 84.2 °F 68.0 °F 63% 29.91 in 10.0 mi East 5.8 mph - N/A   Scattered Clouds
4:15 PM 81.1 °F 83.9 °F 68.0 °F 64% 29.91 in 10.0 mi ESE 5.8 mph - N/A   Scattered Clouds
4:35 PM 82.4 °F 85.4 °F 68.0 °F 62% 29.91 in 10.0 mi ESE 4.6 mph - N/A   Scattered Clouds
4:55 PM 81.5 °F 84.2 °F 68.0 °F 63% 29.92 in 10.0 mi Calm Calm - N/A   Scattered Clouds
5:15 PM 82.2 °F 85.5 °F 69.1 °F 64% 29.92 in 10.0 mi ESE 4.6 mph - N/A   Scattered Clouds
5:35 PM 81.9 °F 84.8 °F 68.2 °F 63% 29.93 in 10.0 mi ESE 3.5 mph - N/A   Scattered Clouds
5:55 PM 81.1 °F 84.0 °F 68.4 °F 65% 29.93 in 10.0 mi East 5.8 mph - N/A   Overcast
6:15 PM 80.8 °F 83.8 °F 68.7 °F 67% 29.93 in 10.0 mi ENE 4.6 mph - N/A   Mostly Cloudy
6:35 PM 81.7 °F 84.7 °F 68.5 °F 64% 29.92 in 10.0 mi ENE 4.6 mph - N/A   Clear
6:55 PM 81.7 °F 84.5 °F 68.2 °F 63% 29.91 in 10.0 mi ESE 5.8 mph - N/A   Clear
7:15 PM 81.3 °F 84.3 °F 68.4 °F 65% 29.91 in 10.0 mi SE 3.5 mph - N/A   Clear
7:35 PM 80.8 °F 83.5 °F 68.2 °F 65% 29.92 in 10.0 mi Calm Calm - N/A   Clear
7:55 PM 79.9 °F - 68.7 °F 69% 29.92 in 10.0 mi Calm Calm - N/A   Scattered Clouds
8:15 PM 79.3 °F - 69.6 °F 72% 29.93 in 10.0 mi Calm Calm - N/A   Mostly Cloudy
8:35 PM 77.4 °F - 70.7 °F 80% 29.94 in 10.0 mi Calm Calm - N/A   Mostly Cloudy
8:55 PM 76.3 °F - 70.3 °F 82% 29.94 in 10.0 mi NE 3.5 mph - N/A   Scattered Clouds
9:15 PM 75.2 °F - 69.1 °F 81% 29.95 in 10.0 mi NE 3.5 mph - N/A   Clear
9:35 PM 74.3 °F - 69.1 °F 84% 29.96 in 10.0 mi NNE 4.6 mph - N/A   Clear
9:55 PM 73.4 °F - 69.1 °F 86% 29.97 in 10.0 mi NE 6.9 mph - N/A   Clear
10:15 PM 72.7 °F - 68.9 °F 88% 29.98 in 10.0 mi NNE 6.9 mph - N/A   Clear
10:35 PM 72.5 °F - 66.9 °F 83% 29.98 in 10.0 mi NE 10.4 mph - N/A   Clear
10:55 PM 71.1 °F - 65.1 °F 81% 29.98 in 10.0 mi NE 9.2 mph - N/A   Clear
11:15 PM 70.0 °F - 63.5 °F 80% 29.99 in 10.0 mi NE 12.7 mph - N/A   Clear
11:35 PM 69.1 °F - 63.1 °F 81% 30.01 in 10.0 mi NNE 8.1 mph - N/A   Clear
11:55 PM 68.0 °F - 62.8 °F 83% 30.01 in 10.0 mi NE 6.9 mph - N/A   Clear